This is the latest recevied weather packets stored in our database for station/object IR4UCA-3. If no packets are shown the sender has not sent any weather packets the latest 1 day(s).
| Time | Temp. | Humidity | Pressure | Rain* | Wind** | Luminosity | Snow |
|---|---|---|---|---|---|---|---|
| 1778035322 | 15° C | 91% | 1010.1 hPa | 2.29 mm | - | - | - |
| 1778035213 | 15° C | 90% | 1010.1 hPa | 2.29 mm | - | - | - |
| 1778035083 | 15° C | 90% | 1010.3 hPa | 2.29 mm | - | - | - |
| 1778034961 | 15° C | 90% | 1010.3 hPa | 2.29 mm | - | - | - |
| 1778034836 | 15° C | 90% | 1010.2 hPa | 2.03 mm | - | - | - |
| 1778034694 | 15° C | 91% | 1010.3 hPa | 2.29 mm | - | - | - |
| 1778034574 | 15° C | 91% | 1010.2 hPa | 2.29 mm | - | - | - |
| 1778034452 | 15° C | 91% | 1010.1 hPa | 2.29 mm | - | - | - |
| 1778034332 | 15° C | 91% | 1010.2 hPa | 2.29 mm | - | - | - |
| 1778034212 | 15° C | 91% | 1010.2 hPa | 2.54 mm | - | - | - |
| 1778033978 | 15° C | 91% | 1010.3 hPa | 2.79 mm | - | - | - |
| 1778033850 | 15° C | 91% | 1010.5 hPa | 3.05 mm | - | - | - |
| 1778033609 | 15.56° C | 91% | 1010.7 hPa | 3.05 mm | - | - | - |
| 1778033490 | 15.56° C | 91% | 1010.7 hPa | 3.3 mm | - | - | - |
| 1778033371 | 15.56° C | 90% | 1010.8 hPa | 3.05 mm | - | - | - |
| 1778033122 | 15.56° C | 90% | 1010.8 hPa | 3.3 mm | - | - | - |
| 1778032880 | 15.56° C | 90% | 1010.7 hPa | 3.3 mm | - | - | - |
| 1778032759 | 15.56° C | 91% | 1010.7 hPa | 3.56 mm | - | - | - |
| 1778032638 | 15.56° C | 91% | 1010.7 hPa | 3.81 mm | - | - | - |
| 1778032523 | 15.56° C | 91% | 1010.6 hPa | 4.06 mm | - | - | - |
| 1778032398 | 15.56° C | 91% | 1010.4 hPa | 4.32 mm | - | - | - |
| 1778032278 | 15.56° C | 91% | 1010.4 hPa | 4.32 mm | - | - | - |
| 1778032042 | 15.56° C | 91% | 1010.5 hPa | 5.08 mm | - | - | - |
| 1778031925 | 15° C | 91% | 1010.5 hPa | 5.08 mm | - | - | - |
| 1778031796 | 15° C | 91% | 1010.6 hPa | 5.08 mm | - | - | - |
* Rain latest hour (hover to see other rain measurements)
** Current wind speed in m/s (hover to see current wind gust speed)